When you browse on this site, cookies collect data to enhance your experience and personalize the content and advertising you see.
Visit our Privacy Policy to learn more. By continuing to use the site, you agree to this use of cookies and data.
  • In United Kingdom
  • List of Countries
  • For 7 days
  • Water Temperature
  • Weather Map
  • Weather Widgets
  • user-avatar
    Login

    Hourly Weather Izberbash

    Today, 21 August, Wednesday

    Time Temperature Precipitation Wind Pressure Humidity
    00:00 +27°C° 0 mm 4 mps 760 mmHg 48%
    01:00 +26°C° 0 mm 3 mps 759 mmHg 49%
    02:00 +26°C° 0 mm 3 mps 759 mmHg 50%
    03:00 +26°C° 0 mm 3 mps 759 mmHg 51%
    04:00 +26°C° 0 mm 3 mps 759 mmHg 52%
    05:00 +27°C° 0 mm 2 mps 759 mmHg 52%
    06:00 +27°C° 0 mm 2 mps 759 mmHg 52%
    07:00 +29°C° 0 mm 3 mps 759 mmHg 46%
    08:00 +31°C° 0 mm 3 mps 759 mmHg 40%
    09:00 +34°C° 0 mm 3 mps 759 mmHg 34%
    10:00 +35°C° 0 mm 4 mps 759 mmHg 33%
    11:00 +36°C° 0 mm 5 mps 759 mmHg 31%
    12:00 +36°C° 0 mm 5 mps 758 mmHg 29%
    13:00 +36°C° 0 mm 5 mps 758 mmHg 30%
    14:00 +36°C° 0 mm 5 mps 758 mmHg 30%
    15:00 +36°C° 0 mm 5 mps 757 mmHg 30%
    16:00 +35°C° 0 mm 5 mps 757 mmHg 33%
    17:00 +33°C° 0 mm 4 mps 757 mmHg 36%
    18:00 +32°C° 0 mm 4 mps 757 mmHg 38%
    19:00 +30°C° 0 mm 4 mps 757 mmHg 40%
    20:00 +29°C° 0 mm 4 mps 757 mmHg 41%
    21:00 +28°C° 0 mm 4 mps 757 mmHg 42%
    22:00 +28°C° 0 mm 4 mps 757 mmHg 42%
    23:00 +28°C° 0 mm 3 mps 757 mmHg 42%

    Tomorrow, 22 August, Thursday

    Time Temperature Precipitation Wind Pressure Humidity
    00:00 +27°C° 0 mm 3 mps 757 mmHg 42%
    01:00 +27°C° 0 mm 3 mps 757 mmHg 46%
    02:00 +26°C° 0 mm 3 mps 757 mmHg 50%
    03:00 +26°C° 0 mm 3 mps 756 mmHg 54%
    04:00 +26°C° 0 mm 2 mps 756 mmHg 54%
    05:00 +27°C° 0 mm 2 mps 756 mmHg 54%
    06:00 +27°C° 0 mm 2 mps 756 mmHg 53%
    07:00 +29°C° 0 mm 3 mps 756 mmHg 45%
    08:00 +33°C° 0 mm 4 mps 756 mmHg 37%
    09:00 +35°C° 0 mm 5 mps 756 mmHg 28%
    10:00 +36°C° 0 mm 5 mps 756 mmHg 28%
    11:00 +36°C° 0 mm 6 mps 756 mmHg 28%
    12:00 +38°C° 0 mm 6 mps 756 mmHg 27%
    13:00 +38°C° 0 mm 6 mps 755 mmHg 28%
    14:00 +38°C° 0 mm 6 mps 755 mmHg 29%
    15:00 +36°C° 0 mm 6 mps 755 mmHg 30%
    16:00 +35°C° 0 mm 5 mps 755 mmHg 33%
    17:00 +34°C° 0 mm 4 mps 755 mmHg 36%
    18:00 +33°C° 0 mm 4 mps 755 mmHg 39%
    19:00 +30°C° 0 mm 3 mps 756 mmHg 41%
    20:00 +29°C° 0 mm 3 mps 756 mmHg 44%
    21:00 +28°C° 0 mm 2 mps 756 mmHg 46%
    22:00 +27°C° 0 mm 2 mps 756 mmHg 45%
    23:00 +27°C° 0 mm 2 mps 756 mmHg 45%

    Day after tomorrow, 23 August, Friday

    Time Temperature Precipitation Wind Pressure Humidity
    00:00 +27°C° 0 mm 3 mps 756 mmHg 45%
    01:00 +26°C° 0 mm 2 mps 756 mmHg 45%
    02:00 +26°C° 0 mm 2 mps 756 mmHg 44%
    03:00 +26°C° 0 mm 2 mps 756 mmHg 44%
    04:00 +27°C° 0 mm 2 mps 756 mmHg 43%
    05:00 +27°C° 0 mm 1 mps 756 mmHg 41%
    06:00 +28°C° 0 mm 1 mps 757 mmHg 40%
    07:00 +30°C° 0 mm 2 mps 757 mmHg 35%
    08:00 +34°C° 0 mm 3 mps 757 mmHg 31%
    09:00 +36°C° 0 mm 3 mps 757 mmHg 26%
    10:00 +36°C° 0 mm 4 mps 757 mmHg 27%
    11:00 +36°C° 0 mm 5 mps 756 mmHg 28%
    12:00 +37°C° 0 mm 5 mps 756 mmHg 29%
    13:00 +36°C° 0 mm 5 mps 756 mmHg 30%
    14:00 +36°C° 0 mm 5 mps 756 mmHg 31%
    15:00 +36°C° 0 mm 4 mps 756 mmHg 33%
    16:00 +35°C° 0 mm 4 mps 756 mmHg 37%
    17:00 +34°C° 0 mm 3 mps 756 mmHg 41%
    18:00 +31°C° 0 mm 3 mps 756 mmHg 45%
    19:00 +30°C° 0 mm 3 mps 756 mmHg 46%
    20:00 +30°C° 0 mm 3 mps 757 mmHg 47%
    21:00 +29°C° 0 mm 3 mps 757 mmHg 48%
    22:00 +28°C° 0 mm 3 mps 757 mmHg 47%
    23:00 +28°C° 0 mm 3 mps 757 mmHg 47%

    24 August, Saturday

    Time Temperature Precipitation Wind Pressure Humidity
    00:00 +28°C° 0 mm 3 mps 757 mmHg 46%
    01:00 +27°C° 0 mm 2 mps 757 mmHg 46%
    02:00 +27°C° 0 mm 2 mps 757 mmHg 47%
    03:00 +26°C° 0 mm 1 mps 757 mmHg 47%
    04:00 +27°C° 0 mm 1 mps 757 mmHg 46%
    05:00 +27°C° 0 mm 1 mps 757 mmHg 45%
    06:00 +28°C° 0 mm 1 mps 757 mmHg 44%
    07:00 +30°C° 0 mm 1 mps 757 mmHg 40%
    08:00 +32°C° 0 mm 2 mps 757 mmHg 36%
    09:00 +35°C° 0 mm 2 mps 758 mmHg 32%
    10:00 +35°C° 0 mm 3 mps 757 mmHg 33%
    11:00 +35°C° 0 mm 3 mps 757 mmHg 33%
    12:00 +36°C° 0 mm 4 mps 757 mmHg 33%
    13:00 +36°C° 0 mm 4 mps 757 mmHg 35%
    14:00 +36°C° 0 mm 4 mps 757 mmHg 36%
    15:00 +36°C° 0 mm 4 mps 757 mmHg 37%
    16:00 +35°C° 0.1 mm 4 mps 757 mmHg 42%
    17:00 +33°C° 0.1 mm 3 mps 757 mmHg 47%
    18:00 +30°C° 0.1 mm 3 mps 757 mmHg 52%
    19:00 +29°C° 0 mm 3 mps 758 mmHg 52%
    20:00 +29°C° 0 mm 3 mps 758 mmHg 52%
    21:00 +28°C° 0 mm 3 mps 759 mmHg 52%
    22:00 +28°C° 0 mm 3 mps 759 mmHg 51%
    23:00 +27°C° 0 mm 2 mps 759 mmHg 49%

    25 August, Sunday

    Time Temperature Precipitation Wind Pressure Humidity
    00:00 +27°C° 0 mm 2 mps 759 mmHg 48%
    01:00 +26°C° 0 mm 2 mps 759 mmHg 48%
    02:00 +26°C° 0 mm 2 mps 759 mmHg 48%
    03:00 +26°C° 0 mm 1 mps 759 mmHg 49%
    04:00 +26°C° 0 mm 1 mps 759 mmHg 47%
    05:00 +27°C° 0 mm 1 mps 759 mmHg 46%
    06:00 +28°C° 0 mm 1 mps 759 mmHg 44%
    07:00 +29°C° 0 mm 1 mps 759 mmHg 42%
    08:00 +30°C° 0 mm 1 mps 759 mmHg 41%
    09:00 +31°C° 0 mm 2 mps 759 mmHg 39%
    10:00 +32°C° 0 mm 2 mps 759 mmHg 36%
    11:00 +34°C° 0 mm 2 mps 759 mmHg 33%
    12:00 +34°C° 0 mm 3 mps 758 mmHg 30%
    13:00 +34°C° 0 mm 3 mps 758 mmHg 30%
    14:00 +34°C° 0 mm 4 mps 758 mmHg 31%
    15:00 +34°C° 0 mm 4 mps 758 mmHg 32%
    16:00 +33°C° 0 mm 4 mps 758 mmHg 36%
    17:00 +31°C° 0 mm 3 mps 758 mmHg 40%
    18:00 +29°C° 0 mm 3 mps 758 mmHg 44%
    19:00 +28°C° 0 mm 3 mps 758 mmHg 45%
    20:00 +27°C° 0 mm 3 mps 758 mmHg 46%
    21:00 +26°C° 0 mm 3 mps 758 mmHg 47%
    22:00 +26°C° 0 mm 2 mps 758 mmHg 46%
    23:00 +26°C° 0 mm 2 mps 758 mmHg 45%

    26 August, Monday

    Time Temperature Precipitation Wind Pressure Humidity
    00:00 +26°C° 0 mm 2 mps 758 mmHg 45%
    01:00 +26°C° 0 mm 2 mps 758 mmHg 46%
    02:00 +25°C° 0 mm 1 mps 758 mmHg 48%
    03:00 +25°C° 0 mm 1 mps 758 mmHg 50%
    04:00 +25°C° 0 mm 1 mps 758 mmHg 49%
    05:00 +26°C° 0 mm 1 mps 758 mmHg 49%
    06:00 +26°C° 0 mm 1 mps 758 mmHg 49%
    07:00 +28°C° 0 mm 1 mps 758 mmHg 44%
    08:00 +30°C° 0 mm 2 mps 759 mmHg 39%
    09:00 +32°C° 0 mm 2 mps 759 mmHg 34%
    10:00 +33°C° 0 mm 3 mps 759 mmHg 35%
    11:00 +33°C° 0 mm 3 mps 759 mmHg 36%
    12:00 +34°C° 0 mm 4 mps 759 mmHg 37%
    13:00 +33°C° 0 mm 3 mps 759 mmHg 37%
    14:00 +33°C° 0 mm 3 mps 759 mmHg 38%
    15:00 +33°C° 0 mm 3 mps 759 mmHg 38%
    16:00 +31°C° 0 mm 2 mps 759 mmHg 41%
    17:00 +30°C° 0 mm 1 mps 759 mmHg 44%
    18:00 +27°C° 0 mm 0 mps 759 mmHg 46%
    19:00 +28°C° 0 mm 1 mps 760 mmHg 49%
    20:00 +27°C° 0 mm 1 mps 761 mmHg 52%
    21:00 +26°C° 0 mm 1 mps 761 mmHg 54%
    22:00 +26°C° 0 mm 2 mps 761 mmHg 55%
    23:00 +25°C° 0 mm 2 mps 762 mmHg 55%
    Show more